DAL8384 KMEM-KBHM

Flight info

Callsign DAL8384
Flight time 0h 49m
Altitude 23000
Route BBKNG7 KERMI VUZ
Aircraft SF50/L-SDGRWY/L

Departure

Time 2026-05-06 00:37
Airport Memphis International Airport (KMEM)

Arrival

Time 2026-05-06 01:26
Airport Birmingham-Shuttlesworth International Airport (KBHM)
Time Latitude Longitude Altitude Speed Heading
2026-05-06 00:20 35.04130 -89.98234 304 ft 0 kts 327°
2026-05-06 00:28 35.04129 -89.98234 303 ft 2 kts 327°
2026-05-06 00:28 35.04115 -89.98223 304 ft 2 kts 327°
2026-05-06 00:28 35.04104 -89.98210 303 ft 2 kts 256°
2026-05-06 00:28 35.04105 -89.98208 303 ft 0 kts 232°
2026-05-06 00:29 35.04085 -89.98223 304 ft 10 kts 206°
2026-05-06 00:29 35.04018 -89.98260 300 ft 9 kts 197°
2026-05-06 00:29 35.03989 -89.98271 300 ft 0 kts 195°
2026-05-06 00:30 35.03984 -89.98272 300 ft 5 kts 185°
2026-05-06 00:30 35.03910 -89.98278 300 ft 11 kts 203°
2026-05-06 00:30 35.03883 -89.98345 301 ft 9 kts 269°
2026-05-06 00:31 35.03882 -89.98438 300 ft 14 kts 271°
2026-05-06 00:31 35.03970 -89.98494 297 ft 17 kts 356°
2026-05-06 00:31 35.04094 -89.98496 293 ft 19 kts 359°
2026-05-06 00:31 35.04213 -89.98499 292 ft 16 kts 359°
2026-05-06 00:32 35.04311 -89.98501 292 ft 13 kts 359°
2026-05-06 00:32 35.04396 -89.98502 293 ft 12 kts
2026-05-06 00:32 35.04485 -89.98505 291 ft 13 kts 359°
2026-05-06 00:32 35.04571 -89.98507 291 ft 12 kts 359°
2026-05-06 00:33 35.04621 -89.98508 292 ft 10 kts
2026-05-06 00:33 35.04701 -89.98509 293 ft 14 kts 358°
2026-05-06 00:33 35.04812 -89.98511 292 ft 16 kts 360°
2026-05-06 00:33 35.04921 -89.98525 292 ft 16 kts 318°
2026-05-06 00:34 35.04937 -89.98601 292 ft 5 kts 260°
2026-05-06 00:34 35.04935 -89.98630 292 ft 0 kts 268°
2026-05-06 00:34 35.04935 -89.98654 292 ft 11 kts 269°
2026-05-06 00:35 35.04901 -89.98738 293 ft 13 kts 204°
2026-05-06 00:35 35.04819 -89.98742 292 ft 10 kts 178°
2026-05-06 00:35 35.04814 -89.98742 295 ft 0 kts 178°
2026-05-06 00:36 35.04761 -89.98741 291 ft 35 kts 179°
2026-05-06 00:36 35.04231 -89.98731 321 ft 107 kts 178°
2026-05-06 00:36 35.03501 -89.98693 501 ft 110 kts 179°
2026-05-06 00:36 35.02696 -89.98642 763 ft 122 kts 175°
2026-05-06 00:37 35.01814 -89.98648 1009 ft 131 kts 189°
2026-05-06 00:37 35.00964 -89.99167 1163 ft 147 kts 209°
2026-05-06 00:37 35.00005 -89.99440 1451 ft 146 kts 170°
2026-05-06 00:37 34.99033 -89.99043 1695 ft 148 kts 164°
2026-05-06 00:38 34.98086 -89.98555 1987 ft 148 kts 165°
2026-05-06 00:38 34.97153 -89.97994 2225 ft 153 kts 159°
2026-05-06 00:38 34.96257 -89.97266 2471 ft 155 kts 156°
2026-05-06 00:38 34.95358 -89.96543 2737 ft 156 kts 158°
2026-05-06 00:39 34.94444 -89.95794 2993 ft 160 kts 154°
2026-05-06 00:39 34.93676 -89.94771 3218 ft 173 kts 136°
2026-05-06 00:39 34.93129 -89.93409 3438 ft 186 kts 118°
2026-05-06 00:39 34.92934 -89.91801 3646 ft 197 kts 100°
2026-05-06 00:40 34.92871 -89.90122 3853 ft 198 kts 102°
2026-05-06 00:40 34.92778 -89.88446 4075 ft 199 kts 102°
2026-05-06 00:40 34.92698 -89.86752 4273 ft 201 kts 101°
2026-05-06 00:40 34.92615 -89.85044 4485 ft 203 kts 101°
2026-05-06 00:41 34.92537 -89.83334 4825 ft 204 kts 100°
2026-05-06 00:41 34.92453 -89.81610 5163 ft 208 kts 100°
2026-05-06 00:41 34.92363 -89.79848 5505 ft 209 kts 99°
2026-05-06 00:41 34.92279 -89.78082 5850 ft 209 kts 99°
2026-05-06 00:42 34.92193 -89.76303 6247 ft 213 kts 99°
2026-05-06 00:42 34.92109 -89.74513 6920 ft 212 kts 98°
2026-05-06 00:42 34.92021 -89.72704 7487 ft 215 kts 97°
2026-05-06 00:42 34.91933 -89.70872 8054 ft 219 kts 96°
2026-05-06 00:43 34.91844 -89.69003 8617 ft 223 kts 96°
2026-05-06 00:43 34.91751 -89.67104 9169 ft 227 kts 96°
2026-05-06 00:43 34.91657 -89.65195 9700 ft 231 kts 95°
2026-05-06 00:43 34.91613 -89.63227 10148 ft 235 kts 89°
2026-05-06 00:44 34.91625 -89.61223 10642 ft 238 kts 90°
2026-05-06 00:44 34.91617 -89.59182 11096 ft 243 kts 90°
2026-05-06 00:44 34.91615 -89.57109 11582 ft 246 kts 89°
2026-05-06 00:44 34.91612 -89.55008 12044 ft 251 kts 88°
2026-05-06 00:45 34.91610 -89.52867 12516 ft 255 kts 88°
2026-05-06 00:45 34.91607 -89.50691 12984 ft 258 kts 88°
2026-05-06 00:45 34.91604 -89.48486 13454 ft 262 kts 87°
2026-05-06 00:45 34.91599 -89.46250 13891 ft 266 kts 87°
2026-05-06 00:46 34.91596 -89.43991 14319 ft 268 kts 87°
2026-05-06 00:46 34.91590 -89.41712 14737 ft 271 kts 88°
2026-05-06 00:46 34.91585 -89.39409 15169 ft 273 kts 88°
2026-05-06 00:46 34.91579 -89.37090 15600 ft 275 kts 88°
2026-05-06 00:47 34.91572 -89.34784 16004 ft 277 kts 88°
2026-05-06 00:47 34.91566 -89.32423 16409 ft 280 kts 88°
2026-05-06 00:47 34.91558 -89.30046 16817 ft 282 kts 89°
2026-05-06 00:47 34.91551 -89.27651 17217 ft 284 kts 89°
2026-05-06 00:48 34.91542 -89.25235 17622 ft 286 kts 89°
2026-05-06 00:48 34.91533 -89.22802 18019 ft 288 kts 89°
2026-05-06 00:48 34.91357 -89.20371 18345 ft 289 kts 105°
2026-05-06 00:48 34.90894 -89.17990 18688 ft 289 kts 105°
2026-05-06 00:49 34.90480 -89.15591 19057 ft 289 kts 103°
2026-05-06 00:49 34.90072 -89.13192 19427 ft 289 kts 103°
2026-05-06 00:49 34.89667 -89.10794 19806 ft 289 kts 103°
2026-05-06 00:49 34.89266 -89.08397 20176 ft 289 kts 103°
2026-05-06 00:50 34.88859 -89.06002 20563 ft 289 kts 102°
2026-05-06 00:50 34.88457 -89.03641 20931 ft 289 kts 102°
2026-05-06 00:50 34.88052 -89.01248 21306 ft 289 kts 102°
2026-05-06 00:50 34.87645 -88.98857 21689 ft 288 kts 102°
2026-05-06 00:51 34.87238 -88.96466 22067 ft 288 kts 102°
2026-05-06 00:51 34.86828 -88.94055 22270 ft 297 kts 101°
2026-05-06 00:51 34.86401 -88.91554 22471 ft 303 kts 101°
2026-05-06 00:51 34.85972 -88.89046 22828 ft 302 kts 101°
2026-05-06 00:52 34.85535 -88.86494 22866 ft 314 kts 101°
2026-05-06 00:52 34.85083 -88.83850 22880 ft 322 kts 102°
2026-05-06 00:52 34.84622 -88.81156 22877 ft 328 kts 102°
2026-05-06 00:52 34.84158 -88.78458 22877 ft 332 kts 102°
2026-05-06 00:53 34.83681 -88.75690 22881 ft 336 kts 102°
2026-05-06 00:53 34.83199 -88.72894 22880 ft 339 kts 102°
2026-05-06 00:53 34.82713 -88.70072 22880 ft 342 kts 102°
2026-05-06 00:53 34.82222 -88.67227 22881 ft 345 kts 102°
2026-05-06 00:54 34.81724 -88.64363 22879 ft 347 kts 102°
2026-05-06 00:54 34.81226 -88.61484 22881 ft 349 kts 102°
2026-05-06 00:54 34.80722 -88.58581 22880 ft 352 kts 102°
2026-05-06 00:54 34.80216 -88.55665 22882 ft 354 kts 102°
2026-05-06 00:55 34.79703 -88.52723 22881 ft 357 kts 102°
2026-05-06 00:55 34.79186 -88.49757 22881 ft 360 kts 102°
2026-05-06 00:55 34.78673 -88.46811 22883 ft 361 kts 102°
2026-05-06 00:55 34.78163 -88.43895 22879 ft 344 kts 102°
2026-05-06 00:56 34.77676 -88.41114 22873 ft 329 kts 102°
2026-05-06 00:56 34.77208 -88.38448 22869 ft 316 kts 103°
2026-05-06 00:56 34.76755 -88.35874 22867 ft 307 kts 103°
2026-05-06 00:56 34.76312 -88.33355 22868 ft 307 kts 103°
2026-05-06 00:57 34.75858 -88.30772 22876 ft 316 kts 103°
2026-05-06 00:57 34.75393 -88.28135 22884 ft 322 kts 103°
2026-05-06 00:57 34.74920 -88.25454 22890 ft 326 kts 103°
2026-05-06 00:57 34.74440 -88.22739 22892 ft 330 kts 103°
2026-05-06 00:58 34.73955 -88.19999 22892 ft 334 kts 103°
2026-05-06 00:58 34.73265 -88.17312 22881 ft 333 kts 118°
2026-05-06 00:58 34.71980 -88.14997 22685 ft 332 kts 138°
2026-05-06 00:58 34.70261 -88.13074 22082 ft 350 kts 147°
2026-05-06 00:59 34.68362 -88.11111 21494 ft 365 kts 145°
2026-05-06 00:59 34.66539 -88.08925 20913 ft 372 kts 139°
2026-05-06 00:59 34.64793 -88.06620 20335 ft 368 kts 139°
2026-05-06 00:59 34.63008 -88.04411 19763 ft 365 kts 143°
2026-05-06 01:00 34.61169 -88.02274 19207 ft 368 kts 143°
2026-05-06 01:00 34.59337 -88.00090 18660 ft 370 kts 142°
2026-05-06 01:00 34.57530 -87.97855 18111 ft 371 kts 141°
2026-05-06 01:00 34.55714 -87.95631 17492 ft 370 kts 142°
2026-05-06 01:01 34.53888 -87.93442 16882 ft 368 kts 142°
2026-05-06 01:01 34.52072 -87.91261 16283 ft 365 kts 141°
2026-05-06 01:01 34.50319 -87.89132 15706 ft 359 kts 141°
2026-05-06 01:01 34.48562 -87.87003 15129 ft 354 kts 141°
2026-05-06 01:02 34.46824 -87.84912 14564 ft 350 kts 141°
2026-05-06 01:02 34.45106 -87.82844 13998 ft 347 kts 140°
2026-05-06 01:02 34.43399 -87.80787 13415 ft 345 kts 140°
2026-05-06 01:02 34.41713 -87.78752 12803 ft 339 kts 140°
2026-05-06 01:03 34.40066 -87.76765 12204 ft 331 kts 141°
2026-05-06 01:03 34.38450 -87.74824 11614 ft 325 kts 141°
2026-05-06 01:03 34.36854 -87.72908 11041 ft 321 kts 141°
2026-05-06 01:03 34.35306 -87.71045 10919 ft 316 kts 141°
2026-05-06 01:04 34.33755 -87.69182 10908 ft 312 kts 141°
2026-05-06 01:04 34.32222 -87.67344 10904 ft 309 kts 141°
2026-05-06 01:04 34.30705 -87.65526 10903 ft 306 kts 141°
2026-05-06 01:04 34.29198 -87.63719 10907 ft 304 kts 141°
2026-05-06 01:05 34.27700 -87.61924 10906 ft 303 kts 141°
2026-05-06 01:05 34.26207 -87.60136 10909 ft 302 kts 141°
2026-05-06 01:05 34.24718 -87.58353 10909 ft 301 kts 141°
2026-05-06 01:05 34.23234 -87.56576 10907 ft 301 kts 142°
2026-05-06 01:06 34.21747 -87.54801 10906 ft 300 kts 142°
2026-05-06 01:06 34.20265 -87.53031 10908 ft 299 kts 141°
2026-05-06 01:06 34.18787 -87.51263 10906 ft 299 kts 141°
2026-05-06 01:06 34.17334 -87.49524 10917 ft 298 kts 141°
2026-05-06 01:07 34.15856 -87.47763 10920 ft 298 kts 141°
2026-05-06 01:07 34.14381 -87.46005 10923 ft 299 kts 141°
2026-05-06 01:07 34.12905 -87.44246 10926 ft 298 kts 141°
2026-05-06 01:07 34.11430 -87.42487 10931 ft 298 kts 141°
2026-05-06 01:08 34.09952 -87.40726 10932 ft 299 kts 141°
2026-05-06 01:08 34.08471 -87.38965 10939 ft 299 kts 141°
2026-05-06 01:08 34.06989 -87.37202 10942 ft 299 kts 141°
2026-05-06 01:08 34.05507 -87.35441 10945 ft 299 kts 141°
2026-05-06 01:09 34.04023 -87.33675 10946 ft 299 kts 141°
2026-05-06 01:09 34.02527 -87.31906 10436 ft 308 kts 140°
2026-05-06 01:09 34.01018 -87.30105 9910 ft 305 kts 140°
2026-05-06 01:09 33.99505 -87.28306 9331 ft 303 kts 142°
2026-05-06 01:10 33.98019 -87.26546 8756 ft 297 kts 141°
2026-05-06 01:10 33.96558 -87.24814 8187 ft 292 kts 142°
2026-05-06 01:10 33.95119 -87.23109 7627 ft 288 kts 142°
2026-05-06 01:10 33.93702 -87.21430 7077 ft 284 kts 142°
2026-05-06 01:11 33.92313 -87.19777 6537 ft 278 kts 142°
2026-05-06 01:11 33.90951 -87.18169 5930 ft 272 kts 142°
2026-05-06 01:11 33.89613 -87.16588 5362 ft 268 kts 141°
2026-05-06 01:11 33.88321 -87.15049 4810 ft 262 kts 140°
2026-05-06 01:12 33.87045 -87.13519 4243 ft 255 kts 141°
2026-05-06 01:12 33.85784 -87.12062 3930 ft 249 kts 142°
2026-05-06 01:12 33.84521 -87.10594 3932 ft 254 kts 141°
2026-05-06 01:12 33.83320 -87.09156 3953 ft 233 kts 141°
2026-05-06 01:13 33.82199 -87.07824 3942 ft 223 kts 142°
2026-05-06 01:13 33.81087 -87.06529 3946 ft 222 kts 143°
2026-05-06 01:13 33.79988 -87.05245 3943 ft 219 kts 142°
2026-05-06 01:13 33.78939 -87.04001 3947 ft 210 kts 142°
2026-05-06 01:14 33.76914 -87.01503 3941 ft 215 kts 130°
2026-05-06 01:14 33.76599 -86.99692 3944 ft 233 kts 92°
2026-05-06 01:14 33.76842 -86.97755 3950 ft 235 kts 86°
2026-05-06 01:15 33.77124 -86.95830 3945 ft 231 kts 85°
2026-05-06 01:15 33.77394 -86.93965 3967 ft 224 kts 86°
2026-05-06 01:15 33.77666 -86.92143 3965 ft 219 kts 86°
2026-05-06 01:15 33.77942 -86.90358 3965 ft 213 kts 85°
2026-05-06 01:16 33.78210 -86.88658 3962 ft 203 kts 86°
2026-05-06 01:16 33.78468 -86.86975 3972 ft 209 kts 86°
2026-05-06 01:16 33.78735 -86.85204 3971 ft 227 kts 88°
2026-05-06 01:16 33.79032 -86.83262 3988 ft 238 kts 86°
2026-05-06 01:17 33.79176 -86.81295 3977 ft 236 kts 95°
2026-05-06 01:17 33.79196 -86.79308 3987 ft 236 kts 96°
2026-05-06 01:17 33.79204 -86.77391 3984 ft 230 kts 96°
2026-05-06 01:17 33.79140 -86.75515 3971 ft 218 kts 110°
2026-05-06 01:18 33.78436 -86.73991 3973 ft 206 kts 135°
2026-05-06 01:18 33.77537 -86.72655 3954 ft 206 kts 136°
2026-05-06 01:18 33.76606 -86.71306 3524 ft 208 kts 136°
2026-05-06 01:18 33.75705 -86.69996 3089 ft 200 kts 136°
2026-05-06 01:19 33.74848 -86.68744 2987 ft 191 kts 136°
2026-05-06 01:19 33.73982 -86.67477 2989 ft 197 kts 136°
2026-05-06 01:19 33.73172 -86.66252 2982 ft 178 kts 135°
2026-05-06 01:19 33.72445 -86.65095 2977 ft 171 kts 135°
2026-05-06 01:20 33.71743 -86.63973 2981 ft 171 kts 135°
2026-05-06 01:20 33.71019 -86.62830 2983 ft 174 kts 135°
2026-05-06 01:20 33.70267 -86.61668 2987 ft 177 kts 135°
2026-05-06 01:20 33.69362 -86.60819 2981 ft 159 kts 172°
2026-05-06 01:21 33.68368 -86.61072 2980 ft 143 kts 207°
2026-05-06 01:21 33.67495 -86.61629 2978 ft 140 kts 205°
2026-05-06 01:21 33.66636 -86.62072 2989 ft 129 kts 197°
2026-05-06 01:21 33.65825 -86.62328 2988 ft 120 kts 195°
2026-05-06 01:22 33.64975 -86.62582 2924 ft 132 kts 194°
2026-05-06 01:22 33.64074 -86.62871 2520 ft 130 kts 197°
2026-05-06 01:22 33.63454 -86.63505 2473 ft 119 kts 230°
2026-05-06 01:22 33.62928 -86.64308 2474 ft 127 kts 227°
2026-05-06 01:23 33.62394 -86.65176 2437 ft 132 kts 228°
2026-05-06 01:23 33.61856 -86.66062 2275 ft 131 kts 229°
2026-05-06 01:23 33.61336 -86.66933 2105 ft 129 kts 229°
2026-05-06 01:23 33.60875 -86.67744 1956 ft 108 kts 229°
2026-05-06 01:24 33.60476 -86.68475 1815 ft 105 kts 229°
2026-05-06 01:24 33.60080 -86.69198 1683 ft 102 kts 228°
2026-05-06 01:24 33.59692 -86.69907 1544 ft 102 kts 228°
2026-05-06 01:24 33.59280 -86.70615 1413 ft 105 kts 228°
2026-05-06 01:25 33.58852 -86.71334 1330 ft 108 kts 233°
2026-05-06 01:25 33.58449 -86.72087 1204 ft 105 kts 222°
2026-05-06 01:25 33.58036 -86.72771 1036 ft 99 kts 219°
2026-05-06 01:25 33.57633 -86.73459 890 ft 100 kts 218°
2026-05-06 01:26 33.57233 -86.74120 723 ft 97 kts 221°
2026-05-06 01:26 33.56905 -86.74697 635 ft 69 kts 218°
2026-05-06 01:26 33.56670 -86.75080 623 ft 49 kts 234°
2026-05-06 01:26 33.56500 -86.75386 624 ft 40 kts 236°
2026-05-06 01:27 33.56353 -86.75644 624 ft 36 kts 235°
2026-05-06 01:27 33.56255 -86.75830 621 ft 8 kts 279°
2026-05-06 01:27 33.56202 -86.75905 616 ft 19 kts 231°
2026-05-06 01:27 33.56095 -86.76101 613 ft 37 kts 227°
2026-05-06 01:28 33.55912 -86.76396 602 ft 37 kts 227°
2026-05-06 01:28 33.55823 -86.76389 603 ft 0 kts 86°
2026-05-06 01:29 33.55824 -86.76387 603 ft 3 kts 85°
2026-05-06 01:29 33.55849 -86.76313 609 ft 13 kts 55°
2026-05-06 01:30 33.55907 -86.76212 608 ft 17 kts 55°
2026-05-06 01:30 33.55976 -86.76092 609 ft 15 kts 56°
2026-05-06 01:30 33.56029 -86.76000 613 ft 14 kts 55°
2026-05-06 01:30 33.56092 -86.75890 621 ft 18 kts 55°
2026-05-06 01:31 33.56149 -86.75789 623 ft 0 kts 54°
2026-05-06 01:31 33.56158 -86.75775 621 ft 2 kts 54°
2026-05-06 01:31 33.56158 -86.75774 621 ft 1 kts 54°
2026-05-06 01:32 33.56204 -86.75695 628 ft 20 kts 55°
2026-05-06 01:32 33.56292 -86.75541 627 ft 21 kts 56°
2026-05-06 01:32 33.56368 -86.75411 623 ft 18 kts 56°
2026-05-06 01:32 33.56437 -86.75293 619 ft 17 kts 56°
2026-05-06 01:33 33.56498 -86.75185 623 ft 14 kts 56°
2026-05-06 01:33 33.56551 -86.75092 627 ft 15 kts 55°
2026-05-06 01:33 33.56592 -86.74971 622 ft 18 kts 94°
2026-05-06 01:33 33.56511 -86.74850 620 ft 17 kts 133°
2026-05-06 01:34 33.56429 -86.74748 621 ft 17 kts 130°
2026-05-06 01:34 33.56423 -86.74640 617 ft 10 kts 85°
2026-05-06 01:34 33.56427 -86.74582 619 ft 7 kts 82°
2026-05-06 01:34 33.56435 -86.74510 628 ft 11 kts 88°
2026-05-06 01:35 33.56443 -86.74403 623 ft 13 kts 84°
2026-05-06 01:35 33.56481 -86.74343 624 ft 8 kts 354°
2026-05-06 01:35 33.56527 -86.74341 625 ft 4 kts 32°
2026-05-06 01:35 33.56558 -86.74338 626 ft 8 kts 309°
2026-05-06 01:36 33.56596 -86.74389 625 ft 0 kts 341°